Home   Weather   Colorado Springs   Past weeks

Flag for USA Past Weather in Colorado Springs, Colorado, USA — Yesterday and Last 2 Weeks

Now
10 °F

Light snow. Ice fog.


Feels Like: 10 °F
Forecast: 3 / 18 °F
Wind: No wind

Location: City Of Colorado Springs Municipal Airport

Current Time: Dec 7, 2016 at 7:21:51 pm

Latest Report: Dec 7, 2016 at 6:54 pm


Visibility: 3 mi

Pressure: 30.55 "Hg (24.04 "Hg at 1831m altitude)

Humidity: 80%

Dew Point: 5 °F

Location of Colorado SpringsLocation

Past Weather in Colorado Springs — Graph

°F

Colorado Springs Temperature Yesterday

Maximum temperature yesterday: 23 °F (at 11:54 am)
Minimum temperature yesterday: 10 °F (at 9:54 pm)
Average temperature yesterday: 16 °F

High & Low Weather Summary for the Past Weeks

 TemperatureHumidityPressure
High59 °F (Nov 26, 10:54 am)89% (Dec 3, 7:54 am)30.55 "Hg (Dec 3, 7:54 am)
Low10 °F (Dec 6, 9:54 pm)4% (Nov 26, 10:54 am)29.28 "Hg (Nov 28, 12:54 pm)
Average31 °F43%30.01 "Hg
* Reported Nov 22 5:54 pm — Dec 7 5:54 pm, Colorado Springs, Weather by CustomWeather, © 2016

Note: Actual official high and low records may vary slightly from our data, if they occured in-between our weather recording intervals... More about our weather records

Advertising

Colorado Springs Weather History for the Previous 24 Hours

Scroll right to see more
 ConditionsComfort  
Time TempWeatherWind HumidityBarometerVisibility
5:54 pm
Wed, Dec 7
11 °FLight snow. Ice fog.3 mph84%30.50 "Hg2 mi
4:54 pm14 °FLight snow. Overcast.7 mph80%30.47 "Hg2 mi
3:54 pm15 °FLight snow. Broken clouds.7 mph74%30.42 "Hg2 mi
2:54 pm15 °FLight snow. Overcast.12 mph70%30.38 "Hg1 mi
1:54 pm16 °FLight snow. Overcast.15 mph67%30.34 "Hg7 mi
12:54 pm18 °FLight snow. Overcast.10 mph62%30.30 "Hg10 mi
11:54 am20 °FPartly sunny.No wind55%30.29 "Hg10 mi
10:54 am19 °FPartly sunny.3 mph57%30.31 "Hg10 mi
9:54 am20 °FScattered clouds.9 mph55%30.32 "Hg10 mi
8:54 am18 °FScattered clouds.7 mph65%30.28 "Hg10 mi
7:54 am14 °FBroken clouds.9 mph73%30.26 "Hg8 mi
6:54 am12 °FPartly cloudy.7 mph73%30.22 "Hg10 mi
5:54 am12 °FPassing clouds.5 mph73%30.19 "Hg10 mi
4:54 am12 °FPassing clouds.8 mph73%30.14 "Hg8 mi
3:54 am12 °FPartly cloudy.9 mph80%30.10 "Hg7 mi
2:54 am13 °FPassing clouds.15 mph74%30.06 "Hg10 mi
1:54 am14 °FLight snow. Overcast.12 mph77%30.03 "Hg1 mi
12:54 am14 °FLight snow. Mostly cloudy.16 mph77%30.01 "Hg3 mi
11:54 pm
Tue, Dec 6
15 °FPartly cloudy.16 mph58%30.01 "Hg10 mi
10:54 pm14 °FPassing clouds.8 mph61%29.99 "Hg10 mi
9:54 pm10 °FPassing clouds.9 mph69%30.03 "Hg10 mi
8:54 pm16 °FPartly cloudy.5 mph62%30.01 "Hg7 mi
7:54 pm16 °FPartly cloudy.7 mph67%30.03 "Hg10 mi
Weather by CustomWeather, © 2016

See weather overviewHow to use our weather pages